Miscellaneous Local Product
Issued by NWS Hastings, NE

Home | Current Version | Previous Version | Graphics & Text | Print | Product List | Glossary On
Versions: 1 2 3 4 5 6 7 8 9 10 11 12 13 14 15 16 17 18 19 20 21 22 23 24 25 26 27 28 29 30 31 32 33 34 35 36 37 38 39 40 41 42 43 44 45 46 47 48 49 50
000
AXUS43 KGID 301702
MISGRI

GID CWA HOURLY WEATHER ROUNDUP
NATIONAL WEATHER SERVICE HASTINGS NE
1200 PM CDT THU JUL 30 2015

NOTE: "FAIR" INDICATES FEW OR NO CLOUDS BELOW 12,000 FEET WITH NO
SIGNIFICANT WEATHER AND/OR OBSTRUCTIONS TO VISIBILITY.

...SOUTH CENTRAL NEBRASKA...

CITY           SKY/WX    TMP DP  RH WIND       PRES   REMARKS
GRAND ISLAND   SUNNY     84  58  40 S10       30.25R
HASTINGS       SUNNY     82  62  50 SW10      30.24S
KEARNEY        SUNNY     81  63  54 SW13      30.25S
ORD            SUNNY     83  61  47 W9        30.22F
YORK           SUNNY     81  63  54 SW10      30.23R
AURORA         SUNNY     82  62  50 SW10      30.24R
LEXINGTON      SUNNY     81  66  60 SW10      30.25F
HOLDREGE       SUNNY     80  63  56 SW7       30.26S
HEBRON         SUNNY     81  60  48 SW9       30.24S

...NEBRASKA PANHANDLE...

CITY           SKY/WX    TMP DP  RH WIND       PRES   REMARKS
CHADRON        SUNNY     79  50  36 VRB3      30.28R
ALLIANCE       SUNNY     81  53  37 N6        30.29S
SCOTTSBLUFF    SUNNY     78  55  44 CALM      30.30S
SIDNEY         SUNNY     83  61  47 CALM      30.32S

...WESTERN AND NORTH CENTRAL NEBRASKA...

CITY           SKY/WX    TMP DP  RH WIND       PRES   REMARKS
VALENTINE      SUNNY     86  52  30 VRB3      30.22S
AINSWORTH      PTSUNNY   82  58  44 W9        30.23S
ONEILL         SUNNY     82  60  48 W9        30.23S
BROKEN BOW     SUNNY     82  63  52 SW7       30.25S
IMPERIAL       MOSUNNY   82  64  54 SW10      30.28S
NORTH PLATTE   SUNNY     82  61  48 W9        30.26R
MCCOOK         MOSUNNY   82  63  52 S9        30.26S

...EASTERN NEBRASKA...

CITY           SKY/WX    TMP DP  RH WIND       PRES   REMARKS
NORFOLK        SUNNY     84  60  44 W13       30.21S
SO SIOUX CITY  SUNNY     82  64  54 W12       30.18S
TEKAMAH        SUNNY     83  67  58 W6        30.20S
COLUMBUS       SUNNY     81  63  54 NW7       30.22F
ALBION         SUNNY     82  54  38 W9G17     30.24S
OMAHA EPPLEY   MOSUNNY   86  55  34 VRB6      30.20S
OFFUTT AFB     SUNNY     83  61  47 W8        30.20S
MILLARD        SUNNY     83  61  48 W8        30.21S
LINCOLN        SUNNY     87  57  35 SW15      30.21F
NEBRASKA CITY  SUNNY     80  62  54 SW8       30.23R
BEATRICE       SUNNY     82  63  52 SW7       30.24R
FALLS CITY     SUNNY     83  64  52 VRB5      30.22S

...NORTHERN KANSAS...

CITY           SKY/WX    TMP DP  RH WIND       PRES   REMARKS
GOODLAND       SUNNY     81  64  56 S10       30.30S
HILL CITY      MOSUNNY   81  66  60 MISG      30.26S
NORTON         MOSUNNY   81  61  50 S7        30.25S
PHILLIPSBURG   MOSUNNY   84  66  54 SE6       30.25S HAZE
SMITH CENTER   SUNNY     81  63  54 S7        30.25F
HAYS           MOSUNNY   81  64  57 SE5       30.26S
RUSSELL        PTSUNNY   79  67  66 S6        30.24F
CONCORDIA      SUNNY     83  62  49 S10       30.24F
SALINA         MOSUNNY   81  68  64 S10       30.24F
TOPEKA         CLOUDY    82  65  56 CALM      30.23S



USA.gov is the U.S. government's official web portal to all federal, state and local government web resources and services.